Weather History for KVYS - February, 2014

Change the Weather History Date:

Monday, February 10, 2014

  Actual Average Record
Temperature  
Mean Temperature -2 °F -  
Max Temperature 5 °F 32 °F 62 °F (2009)
Min Temperature -10 °F 14 °F -11 °F (1982)
Degree Days  
Heating Degree Days 68    
Moisture  
Dew Point -9 °F    
Average Humidity 73    
Maximum Humidity 80    
Minimum Humidity 63    
Precipitation  
Precipitation 0.00 in - - ()
Sea Level Pressure  
Sea Level Pressure 30.42 in    
Wind  
Wind Speed 8 mph (WNW)    
Max Wind Speed 13 mph    
Max Gust Speed -    
Visibility 10 miles    
Events      
Averages and records for this station are not official NWS values.
T = Trace of Precipitation, MM = Missing Value Source: NWS Daily Summary

Daily Weather History Graph

Daily Weather History Graph

Search for Another Location

Airport or City:

Trip Planner

Search our weather history database for the weather conditions in past years. The results will help you decide how hot, cold, wet, or windy it might be!

Date:

Astronomy

Feb. 10, 2014 Rise Set
Actual Time 6:57 AM CST 5:24 PM CST
Civil Twilight 6:29 AM CST 5:52 PM CST
Nautical Twilight 5:56 AM CST 6:25 PM CST
Astronomical Twilight 5:24 AM CST 6:57 PM CST
Moon 1:52 PM CST (2/10) 3:52 AM CST (2/10)
Length of Visible Light 11h 23m
Length of Day
10h 26m
Waxing Gibbous, 85% of the Moon is Illuminated
Feb 10
Waxing Gibbous
Feb 14
Full
Feb 22
Last Quarter
Mar 1
New
Mar 8
First Quarter

Hourly Weather History & Observations

Time (CST) Temp. Windchill Dew Point Humidity Pressure Visibility Wind Dir Wind Speed Gust Speed Precip Events Conditions
12:15 AM -3.5 °F -18.4 °F -8.9 °F 78% 30.33 in 10.0 mi West 8.1 mph - N/A   Clear
12:35 AM -3.5 °F -18.4 °F -8.9 °F 78% 30.33 in 10.0 mi West 8.1 mph - N/A   Clear
12:55 AM -4.5 °F -19.7 °F -10.3 °F 76% 30.33 in 10.0 mi West 8.1 mph - N/A   Clear
1:15 AM -5.1 °F -21.5 °F -10.5 °F 78% 30.34 in 10.0 mi West 9.2 mph - N/A   Clear
1:35 AM -6.0 °F -22.6 °F -11.4 °F 77% 30.34 in 10.0 mi West 9.2 mph - N/A   Clear
1:55 AM -6.0 °F -23.6 °F -11.2 °F 78% 30.35 in 10.0 mi West 10.4 mph - N/A   Clear
2:15 AM -6.0 °F -23.6 °F -11.2 °F 78% 30.35 in 10.0 mi West 10.4 mph - N/A   Clear
2:35 AM -5.4 °F -23.9 °F -10.7 °F 78% 30.36 in 10.0 mi West 11.5 mph - N/A   Clear
2:55 AM -5.8 °F -24.4 °F -11.2 °F 77% 30.36 in 10.0 mi West 11.5 mph - N/A   Clear
3:15 AM -5.8 °F -22.4 °F -11.2 °F 77% 30.36 in 10.0 mi West 9.2 mph - N/A   Clear
3:35 AM -6.0 °F -23.6 °F -11.2 °F 78% 30.37 in 10.0 mi West 10.4 mph - N/A   Clear
3:55 AM -7.6 °F -24.6 °F -13.0 °F 77% 30.38 in 10.0 mi West 9.2 mph - N/A   Clear
4:15 AM -8.0 °F -25.0 °F -13.0 °F 79% 30.38 in 10.0 mi West 9.2 mph - N/A   Clear
4:35 AM -8.3 °F -26.6 °F -13.2 °F 79% 30.38 in 10.0 mi West 10.4 mph - N/A   Clear
4:55 AM -8.5 °F -25.7 °F -13.5 °F 79% 30.38 in 10.0 mi West 9.2 mph - N/A   Clear
5:15 AM -7.2 °F -26.2 °F -12.3 °F 79% 30.38 in 10.0 mi WNW 11.5 mph - N/A   Clear
5:35 AM -8.5 °F -28.6 °F -13.7 °F 78% 30.39 in 10.0 mi WNW 12.7 mph - N/A   Clear
5:55 AM -8.7 °F -28.0 °F -13.5 °F 79% 30.40 in 10.0 mi WNW 11.5 mph - N/A   Clear
6:15 AM -8.5 °F -27.8 °F -13.2 °F 80% 30.41 in 10.0 mi WNW 11.5 mph - N/A   Clear
6:35 AM -10.1 °F -28.8 °F -14.8 °F 80% 30.41 in 10.0 mi WNW 10.4 mph - N/A   Clear
6:55 AM -9.4 °F -28.9 °F -14.4 °F 78% 30.41 in 10.0 mi NW 11.5 mph - N/A   Clear
7:15 AM -9.6 °F -28.1 °F -14.4 °F 79% 30.41 in 10.0 mi WNW 10.4 mph - N/A   Clear
7:35 AM -9.4 °F -28.9 °F -14.4 °F 78% 30.41 in 10.0 mi NW 11.5 mph - N/A   Clear
7:55 AM -9.0 °F -27.4 °F -14.3 °F 78% 30.42 in 10.0 mi NW 10.4 mph - N/A   Clear
8:35 AM -6.9 °F -22.5 °F -12.5 °F 77% 30.43 in 10.0 mi NW 8.1 mph - N/A   Clear
8:55 AM -5.1 °F -22.5 °F -11.0 °F 76% 30.43 in 10.0 mi NW 10.4 mph - N/A   Clear
9:15 AM -4.2 °F -20.4 °F -10.5 °F 74% 30.43 in 10.0 mi NW 9.2 mph - N/A   Clear
9:35 AM -2.7 °F -17.5 °F -9.4 °F 73% 30.44 in 10.0 mi NW 8.1 mph - N/A   Clear
9:55 AM -0.9 °F -12.7 °F -8.0 °F 72% 30.44 in 10.0 mi NW 5.8 mph - N/A   Clear
10:15 AM -0.4 °F - -7.8 °F 71% 30.45 in 10.0 mi Calm Calm - N/A   Clear
10:35 AM 0.9 °F -10.5 °F -6.7 °F 71% 30.45 in 10.0 mi NW 5.8 mph - N/A   Clear
11:15 AM 2.3 °F -8.8 °F -5.8 °F 69% 30.46 in 10.0 mi NW 5.8 mph - N/A   Clear
11:35 AM 3.0 °F -6.4 °F -5.8 °F 67% 30.45 in 10.0 mi NW 4.6 mph - N/A   Clear
11:55 AM 4.1 °F -6.7 °F -5.1 °F 66% 30.45 in 10.0 mi WNW 5.8 mph - N/A   Clear
12:15 PM 4.1 °F -5.1 °F -5.1 °F 66% 30.44 in 10.0 mi NW 4.6 mph - N/A   Clear
12:35 PM 4.5 °F - -4.9 °F 65% 30.44 in 10.0 mi Calm Calm - N/A   Clear
12:55 PM 5.4 °F - -4.2 °F 65% 30.43 in 10.0 mi Calm Calm - N/A   Clear
1:15 PM 5.0 °F -8.1 °F -4.9 °F 64% 30.43 in 10.0 mi NW 8.1 mph - N/A   Clear
1:35 PM 5.2 °F -6.7 °F -4.4 °F 65% 30.42 in 10.0 mi NW 6.9 mph - N/A   Clear
1:55 PM 5.4 °F -8.6 °F -4.9 °F 63% 30.42 in 10.0 mi NW 9.2 mph - N/A   Clear
2:15 PM 5.5 °F -7.4 °F -4.7 °F 63% 30.41 in 10.0 mi NW 8.1 mph - N/A   Clear
2:35 PM 5.9 °F -8.0 °F -4.0 °F 64% 30.41 in 10.0 mi WNW 9.2 mph - N/A   Clear
2:55 PM 5.4 °F -9.6 °F -4.9 °F 63% 30.41 in 10.0 mi WNW 10.4 mph - N/A   Clear
3:15 PM 5.4 °F -8.6 °F -4.4 °F 64% 30.42 in 10.0 mi NW 9.2 mph - N/A   Clear
3:35 PM 5.0 °F -10.0 °F -4.4 °F 65% 30.42 in 10.0 mi WNW 10.4 mph - N/A   Clear
3:55 PM 5.0 °F -8.1 °F -4.4 °F 65% 30.43 in 10.0 mi WNW 8.1 mph - N/A   Clear
4:15 PM 4.6 °F -9.5 °F -4.4 °F 66% 30.43 in 10.0 mi WNW 9.2 mph - N/A   Clear
4:35 PM 4.5 °F -9.8 °F -4.9 °F 65% 30.43 in 10.0 mi WNW 9.2 mph - N/A   Clear
4:55 PM 3.9 °F -9.4 °F -5.3 °F 66% 30.43 in 10.0 mi WNW 8.1 mph - N/A   Clear
5:35 PM 0.5 °F -7.3 °F -7.6 °F 69% 30.44 in 10.0 mi West 3.5 mph - N/A   Clear
5:55 PM -0.2 °F -10.1 °F -8.0 °F 70% 30.45 in 10.0 mi West 4.6 mph - N/A   Clear
6:15 PM -1.3 °F -13.1 °F -8.5 °F 72% 30.45 in 10.0 mi West 5.8 mph - N/A   Clear
6:35 PM -2.9 °F -18.8 °F -9.6 °F 73% 30.47 in 10.0 mi West 9.2 mph - N/A   Clear
7:15 PM -1.8 °F -15.2 °F -8.3 °F 74% 30.46 in 10.0 mi WNW 6.9 mph - N/A   Clear
7:35 PM -1.7 °F -13.5 °F -8.9 °F 71% 30.46 in 10.0 mi West 5.8 mph - N/A   Clear
7:55 PM -2.7 °F -14.8 °F -9.8 °F 72% 30.45 in 10.0 mi WNW 5.8 mph - N/A   Clear
8:15 PM -2.4 °F -15.8 °F -8.7 °F 75% 30.44 in 10.0 mi WNW 6.9 mph - N/A   Clear
8:35 PM -5.8 °F -16.7 °F -12.3 °F 74% 30.45 in 10.0 mi WNW 4.6 mph - N/A   Clear
8:55 PM -6.0 °F -22.6 °F -11.7 °F 76% 30.46 in 10.0 mi West 9.2 mph - N/A   Clear
9:15 PM -6.0 °F -20.1 °F -11.4 °F 77% 30.47 in 10.0 mi West 6.9 mph - N/A   Clear
9:35 PM -5.1 °F -19.1 °F -11.0 °F 76% 30.47 in 10.0 mi West 6.9 mph - N/A   Clear
9:55 PM -5.4 °F -20.8 °F -11.9 °F 74% 30.48 in 10.0 mi WNW 8.1 mph - N/A   Clear
10:15 PM -4.9 °F -20.1 °F -10.7 °F 76% 30.49 in 10.0 mi WNW 8.1 mph - N/A   Clear
10:35 PM -4.5 °F -22.8 °F -10.5 °F 76% 30.49 in 7.0 mi WNW 11.5 mph - N/A   Clear
10:55 PM -4.4 °F -19.5 °F -10.5 °F 75% 30.49 in 10.0 mi WNW 8.1 mph - N/A   Clear
11:15 PM -6.2 °F -20.4 °F -12.3 °F 75% 30.48 in 10.0 mi WNW 6.9 mph - N/A   Clear
11:35 PM -7.2 °F - -13.0 °F 76% 30.47 in 10.0 mi Calm Calm - N/A   Clear
11:55 PM -6.7 °F - -12.5 °F 76% 30.47 in 10.0 mi Calm Calm - N/A   Clear